Hourly Data Report for November 08, 2021

MOUNT FOREST (AUT)
ONTARIO
Current Station Operator: ECCC - MSC

43°59'00.000" N
80°45'00.000" W
414.50 m
6145504
71631
WLS

Download Data

Hourly Data (November 2021)
Hourly Data Report for November 8, 2021
TIME
LST
Temp Definition
°C
Dew Point Definition
°C
Rel Hum Definition
%
Precip. Amount Definition
mm

Wind Dir Definition
10's deg

Wind Spd Definition
km/h
Visibility Definition
km
Stn Press Definition
kPa
Hmdx Definition


Wind Chill Definition


Weather Definition


00:00 6.5 4.8 89 0.0 17 6   97.12     LegendNANA
01:00 6.0 4.8 92 0.0 16 6   97.07     LegendNANA
02:00 6.6 4.9 89 0.0 19 8   97.09     LegendNANA
03:00 5.0 3.9 93 0.0 18 5   97.13     LegendNANA
04:00 5.7 4.6 93 0.0 18 6   97.12     LegendNANA
05:00 6.5 4.9 90 0.0 19 7   97.12     LegendNANA
06:00 6.3 4.6 89 0.0 18 9   97.09     LegendNANA
07:00 6.5 4.6 88 0.0 19 10   97.04     LegendNANA
08:00 8.4 5.0 79 0.0 19 12   97.03     LegendNANA
09:00 9.9 4.8 70 0.0 20 16   97.00     LegendNANA
10:00 12.6 4.4 58 0.0 21 16   97.00     LegendNANA
11:00 14.3 2.6 45 0.0 22 18   96.98     LegendNANA
12:00 14.8 3.6 47 0.0 23 20   96.92     LegendNANA
13:00 15.6 4.1 46 0.0 22 17   96.87     LegendNANA
14:00 16.1 4.4 45 0.0 23 17   96.80     LegendNANA
15:00 16.4 3.9 43 0.0 24 18   96.77     LegendNANA
16:00 15.7 4.3 47 0.0 24 14   96.78     LegendNANA
17:00 13.7 4.6 54 0.0 24 9   96.82     LegendNANA
18:00 11.7 4.5 61 0.0 24 6   96.93     LegendNANA
19:00 10.2 4.5 68 0.0 24 5   96.98     LegendNANA
20:00 9.3 4.4 71 0.0 26 3   96.97     LegendNANA
21:00 7.9 4.0 76 0.0 23 3   96.99     LegendNANA
22:00 6.6 4.0 83 0.0 17 5   96.98     LegendNANA
23:00 5.3 3.3 87 0.0 0 1   96.94     LegendNANA

Notes on Data Quality.

Legend

  • E = Estimated
  • M = Missing
  • NA = Not Available*
  • [empty] = Indicates an unobserved value
Date modified: